Weather in Anzio

Italy     41°27′04″N   12°37′30″E
temp.,
°C
wind,
m/s
gust,
m/s
humid.,
%
clouds,
%
prec.,
mm/h
press.,
hPa
HPBL,
m
18 april, sun
sun1823:00+10w2280100 0.1 1013159
02:00+9se1285100 1.2 101395
05:00+8e338792 0.7 101249
08:00+10ese358275 0.8 1013214
11:00+13sse5569100 0.6 1014997
14:00+13wsw336699 2.8 10141070
17:00+13nw2156100 0.8 1014846
20:00+11wnw2267100 0.9 101479
19 april, mon
mon1923:00+9n227695 0.1 101548
02:00+8ne228362 0.1 101432
05:00+7nne228464 0.0 101337
08:00+9nne227617 0.0 1014109
11:00+14w33585 0.0 10141101
14:00+14w65645 0.3 1015979
17:00+13w66652 0.0 1014956
20:00+10wnw47775 0.1 1014246
20 april, tue
tue2023:00+9nw34815 0.0 1015157
02:00+8n22854 0.0 101566
05:00+7nne22865 0.0 101533
08:00+10ne11785 0.0 1016101
11:00+14wsw33621 0.0 1017923
14:00+15wsw44630 0.5 10171023
17:00+15wsw33630 0.2 1016990
20:00+11w11750 0.2 1017126
21 april, wed
wed2123:00+9ene11790 0.0 101964
02:00+8ene22855 0.0 101932
05:00+8ene33866 0.0 101939
08:00+11ene2378100 0.0 1019104
11:00+15sse3361100 0.0 1019996
14:00+16s4461100 0.0 10191072
17:00+15s4462100 0.0 1019774
20:00+12se1174100 0.0 101974
22 april, thu
thu2223:00+11e227766 0.0 102051
02:00+9ne1181100 0.0 102027
05:00+10ene227782 0.0 101931
08:00+12ne237496 0.0 101995
11:00+16s3252100 0.0 1020604
14:00+16s2150100 0.0 1020363
17:00+16w1148100 0.0 1019435
20:00+13nw2261100 0.0 101922